Location: Lasqueti Island Observatory
(49.4855°N, 124.2726°W)
Time: 01:03:42
(UTC-08:00)

Daily predictions for brighter satellites

Satellite Brightness Start Highest point End
(mag) Time Altitude Azimuth Time Altitude Azimuth Time Altitude Azimuth
Cosmos 2344 4.5 02:19:02 48° N 02:19:02 48° N 02:26:36 10° NE
ADEOS Rocket 3.9 03:05:17 10° NNE 03:10:28 50° NE 03:10:28 50° NE
ADEOS II 4.1 03:16:39 10° NE 03:20:45 22° E 03:21:42 21° ESE
Resurs 1-4 Rocket 3.9 03:38:06 10° N 03:40:04 22° N 03:40:04 22° N
CZ-2D R/B 3.9 03:39:41 10° N 03:41:49 24° N 03:41:49 24° N
Cosmos 2278 Rocket 4.2 03:52:49 18° NNW 03:52:49 18° NNW 03:55:22 10° N
Cosmos 2369 Rocket 2.6 03:52:42 59° E 03:52:42 59° E 03:57:43 10° NE
MOS 1 Rocket 4.0 03:51:22 10° NNE 03:56:14 61° ENE 03:56:14 61° ENE
Cosmos 1867 3.9 04:02:22 64° ENE 04:02:22 64° ENE 04:07:03 10° NE
IRS-1C Rocket 4.4 04:03:16 10° NNE 04:08:31 62° ESE 04:08:55 59° SE
Cosmos 1833 4.2 04:13:34 73° SE 04:13:34 73° SE 04:18:38 10° SSE
Okean O Rocket 2.7 04:09:47 10° NNE 04:12:35 39° NNE 04:12:35 39° NNE
Lacrosse 4 Rocket 4.1 04:17:05 11° N 04:17:05 11° N 04:17:26 10° N
ERS-2 3.9 04:12:10 10° NNE 04:14:52 32° ENE 04:14:52 32° ENE
Cosmos 1624 Rocket 4.1 04:18:47 68° SE 04:19:10 71° ESE 04:24:30 10° NNE
Iridium 4 Rocket 4.5 04:13:30 10° N 04:17:18 41° NNW 04:17:18 41° NNW
Cosmos 2056 Rocket 3.6 04:20:23 65° SE 04:20:47 68° ESE 04:25:59 10° NNE
Cosmos 1933 4.4 04:23:31 42° NNE 04:23:31 42° NNE 04:26:23 10° NNE
Cosmos 1954 Rocket 4.3 04:20:01 10° NNW 04:25:20 66° ENE 04:30:38 10° SSE
Lacrosse 5 rocket 2.7 04:28:23 30° NE 04:28:23 30° NE 04:31:05 10° E
ATLAS 5 CENTAUR R/B 2.0 04:27:41 62° SSE 04:28:02 64° SE 04:33:16 10° NE
Cosmos 972 Rocket 4.0 04:31:24 70° SSW 04:32:02 88° ESE 04:37:42 10° NNE
Cosmos 1943 Rocket 2.3 04:33:16 43° S 04:35:02 69° ESE 04:40:35 10° NNE
CZ-4B R/B 4.2 04:33:11 10° N 04:35:27 31° N 04:35:27 31° N
Lacrosse 5 2.4 04:37:39 45° S 04:38:40 53° SE 04:43:36 10° ENE
CZ-4B R/B 3.1 04:33:05 10° NNE 04:38:43 86° WNW 04:40:37 44° SSW
Cosmos 2263 4.0 04:39:03 61° SW 04:40:03 83° WNW 04:45:44 10° NNE
Cosmos 2266 Rocket 4.2 04:40:21 10° NNW 04:45:40 46° WNW 04:45:40 46° WNW
Nadezhda 2 Rocket 4.3 04:40:52 10° NNW 04:46:58 73° W 04:53:04 10° S
Cosmos 1371 Rocket 4.0 04:49:01 57° WNW 04:49:17 58° WNW 04:54:26 10° NNE
Okean 1-7 4.2 04:47:09 10° SSE 04:51:10 43° E 04:55:14 10° NNE
Thor Agena Rocket 3.5 04:50:32 10° SSE 04:55:45 89° ENE 05:00:57 10° NNW
PSLV R/B 3.5 04:51:41 10° N 04:55:33 60° NW 04:55:33 60° NW
Meteor 1-14 Rocket 4.2 04:50:14 10° NNW 04:56:08 87° E 05:01:51 10° S
Cosmos 1908 Rocket 4.2 04:51:53 10° NNW 05:02:34 - S 04:54:59 41° NW
USA 234 3.6 04:50:04 10° ENE 04:56:31 59° SE 05:00:48 22° SSW
ADEOS Rocket 4.1 04:51:21 10° N 04:57:05 29° NW 04:57:26 29° WNW
Sich 1 Rocket 4.4 04:54:33 10° NNW 04:57:27 36° NW 04:57:27 36° NW
Cosmos 921 Rocket 4.0 05:00:21 31° NNW 05:00:21 31° NNW 05:03:19 10° N
Cosmos 1023 Rocket 4.4 04:54:31 10° NNW 04:59:48 87° WSW 05:05:04 10° SSE
ADEOS II 2.1 04:55:42 10° N 05:00:53 60° WNW 05:02:39 39° SW
Cosmos 1782 Rocket 3.5 04:57:32 10° N 05:02:02 85° W 05:06:29 10° S
Cosmos 1452 Rocket 3.8 04:57:22 13° S 05:02:03 67° ESE 05:07:19 10° NNE
Tiangong 1 3.5 05:03:18 15° SSE 05:03:18 15° SSE 05:04:42 10° SE
Cosmos 1745 Rocket 4.2 05:03:01 10° N 05:09:12 73° E 05:15:19 10° SSE
Cosmos 1741 Rocket 4.2 05:04:19 10° NNW 05:09:34 74° ENE 05:14:49 10° SSE
Okean-O 2.6 05:06:01 10° NNE 05:10:30 86° ESE 05:14:57 10° SSW
Cosmos 1417 Rocket 4.4 05:07:52 10° S 05:14:03 87° E 05:20:14 10° N
Cosmos 2297 Rocket 3.7 05:09:24 10° NNW 05:14:36 35° NE 05:19:45 10° ESE
Meteor 1-31 Rocket 2.6 05:10:56 10° NNE 05:14:52 85° WNW 05:17:36 19° SSW
Cosmos 676 Rocket 4.3 05:12:47 10° NW 05:17:44 41° WSW 05:22:42 10° S
SKYMED 2 3.7 05:14:09 10° SSE 05:18:30 78° ENE 05:22:51 10° N
Meteor 1-26 Rocket 4.1 05:13:55 10° SSW 05:19:35 76° WNW 05:25:13 10° N
Meteor 1-25 Rocket 4.2 05:16:25 10° NNW 05:22:16 82° W 05:28:06 10° S
ATLAS 3B R/B 4.4 05:15:56 10° S 05:22:36 35° ESE 05:29:04 10° NE
Meteor PRIRODA 3.9 05:21:44 10° N 05:25:16 45° WNW 05:25:55 40° WSW
Okean 2 Rocket 3.0 05:23:40 10° NNW 05:28:02 63° W 05:32:22 10° S
Cosmos 2219 3.2 05:23:57 10° NW 05:29:34 61° WSW 05:35:06 10° S
Cosmos 1140 Rocket 3.6 05:25:30 10° NNW 05:30:32 50° WSW 05:35:35 10° S
USA 81 4.4 05:28:32 10° S 05:33:45 68° E 05:39:01 10° N
SJ-6F 4.3 05:30:24 10° N 05:34:34 78° WNW 05:38:41 10° SSW
Cosmos 2227 Rocket 2.9 05:29:17 10° NNW 05:34:54 57° NE 05:40:30 10° SE
Cosmos 2369 Rocket 3.2 05:34:30 23° W 05:36:33 29° NW 05:41:29 10° NNE
Cosmos 614 Rocket 4.0 05:32:01 10° NNW 05:37:01 56° WSW 05:42:01 10° S
Cosmos 1656 Rocket 3.6 05:33:36 10° SSW 05:39:18 83° WNW 05:45:01 10° NNE
Cosmos 1703 Rocket 3.9 05:37:23 15° SW 05:40:36 41° WNW 05:44:47 10° N
CZ-4C R/B 2.3 05:37:21 10° SW 05:42:44 82° SE 05:48:58 10° NE
Meteor 1-11 Rocket 4.4 05:37:58 10° N 05:43:54 61° ENE 05:49:44 10° SSE
Cosmos 2151 Rocket 3.5 05:42:54 10° NNW 05:47:27 81° W 05:51:56 10° S
ERS-2 3.4 05:46:17 10° NNW 05:49:12 22° WNW 05:49:39 21° WNW
Okean O Rocket 3.3 05:47:29 10° NNW 05:50:00 15° WNW 05:50:04 15° WNW
Feng Yun 1-1 Rocket 4.5 05:44:35 10° N 05:50:18 55° WNW 05:56:03 10° SW
Meteor 1-10 Rocket 4.4 05:45:25 10° S 05:50:59 78° E 05:56:41 10° NNE
Cosmos 1633 2.9 05:49:13 10° N 05:52:51 66° ENE 05:56:27 10° SSE
CZ-4B R/B 4.4 05:50:43 10° N 05:54:20 35° WNW 05:58:04 10° SW
Cosmos 1850 Rocket 4.3 05:55:08 10° NW 06:00:12 44° WSW 06:05:12 10° S
Cosmos 1536 4.1 05:56:23 10° N 06:00:15 43° ENE 06:04:05 10° SSE
S3M 4.1 05:56:12 10° SSW 06:02:24 57° WNW 06:08:35 10° N
COSMO-SKYMED 1 3.1 06:02:41 10° SSW 06:06:40 36° W 06:10:43 10° NNW
Lacrosse 5 rocket 0.9 06:04:06 13° WNW 06:07:14 71° SW 06:10:49 10° SE
Meteor 2-10 Rocket 4.2 06:04:44 10° SW 06:09:09 31° WNW 06:13:41 10° N
CZ-3B DEB 1.3 06:08:37 13° NNW 06:09:19 18° NNE 06:10:31 10° ENE
Cosmos 1553 Rocket 4.2 06:03:39 10° SSW 06:09:38 49° WNW 06:15:46 10° N
Ariane Rocket 3.2 06:05:25 10° NNE 06:10:33 81° ESE 06:15:38 10° SSW
Meteor 1-28 Rocket 3.7 06:08:22 10° SSW 06:11:52 37° W 06:15:23 10° NNW
SL-24 R/B - RUBIN 2 4.3 06:05:36 10° NW 06:11:57 90° W 06:17:34 10° SE
ATLAS 5 CENTAUR R/B 2.8 06:09:15 13° W 06:13:08 33° NNW 06:18:05 10° NE
NOAA 6 4.3 06:09:45 10° N 06:14:41 46° WNW 06:19:34 10° SW
IDEFIX/ARIANE 42P 3.6 06:10:02 10° NNE 06:15:09 52° E 06:20:14 10° S
Abrixas 2.4 06:15:07 14° W 06:17:29 71° S 06:20:23 10° E
Meteor 2-11 Rocket 4.4 06:12:33 10° SSW 06:18:37 65° WNW 06:24:45 10° N
Cosmos 1420 Rocket 4.2 06:13:36 10° SW 06:18:38 50° WNW 06:23:42 10° NNE
Cosmos 1943 Rocket 3.2 06:14:49 11° W 06:19:18 27° NW 06:24:00 10° NNE
Lacrosse 5 2.2 06:16:53 11° W 06:21:44 51° NNW 06:26:42 10° NE
Helios 1B rocket 3.9 06:18:19 10° SE 06:22:11 41° ENE 06:26:05 10° N
Meteor 1-27 Rocket 3.9 06:21:25 10° S 06:27:13 89° WNW 06:33:11 10° NNE
Radarsat Rocket 4.5 06:20:09 10° NNE 06:27:31 59° WNW 06:33:57 10° SW
Cosmos 1486 Rocket 4.2 06:22:46 10° NNW 06:28:04 79° ENE 06:33:18 10° SSE
Okean 1-7 4.2 06:25:41 10° WSW 06:28:59 21° WNW 06:32:18 10° NNW
Cosmos 1782 3.5 06:25:39 10° SW 06:29:16 33° WNW 06:32:56 10° N
Cosmos 1602 4.0 06:26:20 10° NNW 06:30:12 50° W 06:34:01 10° S
CSL-04 Rocket 3.7 06:28:33 10° NNE 06:33:56 78° WNW 06:39:21 10° SSW
YAOGAN 1 3.9 06:30:11 10° NNE 06:34:23 47° E 06:38:34 10° S
Cosmos 2082 3.8 06:29:41 10° NNW 06:35:19 64° WSW 06:40:52 10° SSE
Cosmos 1709 Rocket 4.1 06:30:04 10° NNW 06:36:01 56° W 06:41:58 10° SSW
Cosmos 2074 Rocket 4.4 06:30:13 10° N 06:36:32 72° ENE 06:42:49 10° SSE
